Regional Weather Roundup
Issued by NWS Mobile, AL

Home | Current Version | Previous Version | Text Only | Print | Product List | Glossary On
Versions: 1 2 3 4 5 6 7 8 9 10 11 12 13 14 15 16 17 18 19 20 21 22 23 24 25 26 27 28
000
ASUS44 KMOB 241810
RWRMOB
REGIONAL WEATHER ROUNDUP
NATIONAL WEATHER SERVICE MOBILE AL
100 PM CDT THU APR 24 2014

NOTE: "FAIR" INDICATES FEW OR NO CLOUDS BELOW 12,000 FEET WITH NO
      SIGNIFICANT WEATHER AND/OR OBSTRUCTIONS TO VISIBILITY.

  * THESE STATIONS ARE PART OF THE UNIVERSITY OF SOUTH ALABAMA
    MESONET AND ARE NOT UNDER NWS OR FAA QUALITY CONTROL.

ALZ061>064-241900-
COASTAL ALABAMA

CITY           SKY/WX    TMP DP  RH WIND       PRES   REMARKS
MOBILE REG APT PTSUNNY   79  64  60 S9        29.96F
6HR MIN TEMP:  61; 6HR MAX TEMP:  79;

BROOKLEY FIELD FAIR      77  65  66 SE12      29.98F
6HR MIN TEMP:  67; 6HR MAX TEMP:  78;

USA CAMPUS*      N/A     77  63  61 CALM      29.97
DOG RIVER*     NOT AVBL


CITY           SKY/WX    TMP DP  RH WIND       PRES   REMARKS
MOUNT VERNON*  NOT AVBL
SARALAND*      NOT AVBL
BAY MINETTE*   NOT AVBL
LOXLEY*        NOT AVBL
ROBERTSDALE*     N/A     77  63  61 S5        29.98F
FAIRHOPE*      NOT AVBL
ELBERTA*       NOT AVBL
FOLEY*         NOT AVBL
GRAND BAY*       N/A     77  64  65 SE7       29.95
DAUPHIN ISLND* NOT AVBL
BON SCOUR NWR* NOT AVBL
GULF SHORES    FAIR      74  66  74 SE9       29.98F

$$

ALZ051>060-241900-
INTERIOR SOUTHWEST AND SOUTH CENTRAL ALABAMA

CITY           SKY/WX    TMP DP  RH WIND       PRES   REMARKS
GREENVILLE     FAIR      82  62  50 S9        29.95F
6HR MIN TEMP:  61; 6HR MAX TEMP:  82;

EVERGREEN      FAIR      83  56  39 S9        29.97F
6HR MIN TEMP:  60; 6HR MAX TEMP:  85;

CASTLEBERRY*   NOT AVBL
ATMORE*        NOT AVBL
DIXIE*         NOT AVBL
ANDALUSIA/OPP  PTSUNNY   86  58  38 W9        29.96F
6HR MIN TEMP:  68; 6HR MAX TEMP:  88;

ANDALUSIA*     NOT AVBL
FLORALA APT    MOSUNNY   83  60  45 SW8       29.98F
6HR MIN TEMP:  64; 6HR MAX TEMP:  83;

FLORALA*         N/A     79  59  50 S5        29.94F

$$

FLZ001>006-241900-
WESTERN FLORIDA PANHANDLE

CITY           SKY/WX    TMP DP  RH WIND       PRES   REMARKS
PENSACOLA      FAIR      76  64  66 S10       29.98F
6HR MIN TEMP:  67; 6HR MAX TEMP:  78;

NAS PENSACOLA  PTSUNNY   74  66  76 S9        29.98F
6HR MIN TEMP:  66; 6HR MAX TEMP:  75;

MILTON         FAIR      81  59  47 S10G17    29.97F
6HR MIN TEMP:  64; 6HR MAX TEMP:  81;

WHTNG S FIELD  FAIR      82  58  43 S12       29.97F
6HR MIN TEMP:  66; 6HR MAX TEMP:  82;



CITY           SKY/WX    TMP DP  RH WIND       PRES   REMARKS
WALNUT HILL*   NOT AVBL
JAY*           NOT AVBL
DUKE FIELD     MOSUNNY   80  60  50 S12       29.97F
CRESTVIEW      SUNNY     83  58  42 S14G20    29.98F
6HR MIN TEMP:  65; 6HR MAX TEMP:  84;

VALPARAISO     MOSUNNY   75  67  78 S12       29.98F
DESTIN         FAIR      75  64  68 S8        29.99F
6HR MIN TEMP:  71; 6HR MAX TEMP:  75;


$$

MSZ076-079-241900-
INTERIOR SOUTHEAST MISSISSIPPI

CITY           SKY/WX    TMP DP  RH WIND       PRES   REMARKS
LEAKESVILLE*     N/A     77  59  53 S9        29.98
AGRICOLA*      NOT AVBL

$$

MARINE OBSERVATIONS

STATION/POSITION TIME  TEMP    WIND        PRES    WAVE
                       AIR SEA DIR/SP/G            HT/PER
                 (UTC) (F)     (DEG/KT/KT) (MB)    (FT/S)
PASCAGOULA       1800   72     170/  9/ 11 1014.8F
PETIT BOIS ISLND 1800   73     180/  7/  8 1015.5F
GRAND BAY        1700   73     190/  6     1017.0S
KATRINA CUT      1700   71     190/  5     1016.6F
CEDAR POINT      1700   71     200/  6     1015.9F
E DAUPHIN ISLAND 1800   72     180/  6/  9 1014.9F
MIDDLE BAY LIGHT 1700   71     190/  9     1015.2S
USCG MOBILE BAY  1800   73 67  160/  7/  9 1014.0F
STATE DOCKS      1800   72 66              1014.8F
MEAHER PARK      1700   71     190/  6     1014.9F
WEEKS BAY        1700   71                   N/A
FORT MORGAN      1800   72     220/  6/  8 1015.1F
12 S ORANGE BCH  1800   70 72  180/  6/  8 1015.7F   1
PENSACOLA BAY    1800   74 72  180/  6/ 10 1015.9F
64 S DAUPHIN ISL 1749   71 75  150/  4/  6 1015.8F
67 S FORT MORGAN 1700   68                 1014.6S

$$

SELECTED LOCATIONS ACROSS THE REGION

CITY           SKY/WX    TMP DP  RH WIND       PRES   REMARKS
NEW ORLEANS    PTSUNNY   81  66  60 S12       29.95F
GULFPORT       FAIR      78  64  61 S8        29.97F
PASCAGOULA AP  FAIR      79  64  60 SW9       29.97F
PASCAGOULA*      N/A     75  70  83 CALM      29.98F
HATTIESBURG    FAIR      83  59  44 S12       29.95F
LAUREL         FAIR      81  57  44 S9G18     29.96F
MERIDIAN       FAIR      82  56  40 VRB7G23   29.93F
JACKSON        PTSUNNY   82  56  40 S13G22    29.91F
MONTGOMERY     MOSUNNY   83  56  39 SE7       29.96F
TROY           MOSUNNY   84  54  35 S10       29.97F
KINSTON*       NOT AVBL
GENEVA*          N/A     81  55  41 SW7       29.98
ASHFORD*       NOT AVBL
DOTHAN         PTSUNNY   82  57  42 S7        30.00F
PANAMA CITY    SUNNY     78  65  63 S13       29.98F

$$




USA.gov is the U.S. government's official web portal to all federal, state and local government web resources and services.